DateTimeUTC,F1_A11,F1_S11,BsB_S11,BsG_S11,BsR_S11,BbsB_S11,BbsG_S11,BbsR_S11,BaB_A11,BaG_A11,BaR_A11,Tu_S11,T_S11,Uu_S11,U_S11,P_S11,T1_A11
2021-01-31T17:00:00Z,00000200,21000000,,,,,,,-000.21,-000.12,-000.47,15.8,23.5,,00.0,0628.4,30.8
2021-01-31T17:01:00Z,00000200,21000000,,,,,,,-000.49,-000.23,0000.06,15.8,23.5,,00.0,0628.4,30.8
2021-01-31T17:02:00Z,00000200,21000000,,,,,,,0000.01,0000.23,-000.20,15.8,23.5,,00.0,0628.4,30.8
2021-01-31T17:03:00Z,00000200,61000000,,,,,,,0000.56,0000.70,0000.53,15.8,23.5,,00.0,0628.4,30.8
2021-01-31T17:04:00Z,00000200,41000000,0001.33,-000.16,0000.03,-000.19,0000.35,0000.21,-000.15,-000.33,-000.24,16.1,23.3,,00.0,0629.2,30.9
2021-01-31T17:05:00Z,00000200,01000000,0000.73,0000.28,0000.00,0000.20,-000.02,0000.32,0000.05,-000.01,0000.17,16.3,23.2,,00.0,0629.2,30.9
2021-01-31T17:06:00Z,00000200,01000000,0000.68,0000.00,-000.07,-000.18,0000.10,0000.47,-000.10,-000.46,-000.22,16.3,23.2,,00.0,0629.2,30.9
2021-01-31T17:07:00Z,00000200,01000000,0001.05,0000.41,0000.01,0000.61,0000.23,0000.11,-000.04,0000.47,0000.36,16.3,23.2,,00.0,0629.2,30.9
2021-01-31T17:08:00Z,00000200,01000000,0001.24,-000.05,0000.05,-000.34,0000.09,0000.18,0000.36,0000.29,-000.12,16.2,23.2,,00.0,0629.2,30.9
2021-01-31T17:09:00Z,00000200,01000000,-000.48,0000.13,-000.14,0000.21,0000.17,0000.02,-000.18,-000.23,0000.16,16.2,23.1,,00.0,0629.2,30.9
2021-01-31T17:10:00Z,00000200,01000000,0000.49,-000.04,0000.22,0000.37,0000.03,0000.21,-000.11,0000.15,-000.13,16.1,23.1,,00.0,0629.2,30.8
2021-01-31T17:11:00Z,00000200,01000000,0000.12,0000.40,-000.19,-000.10,0000.15,0000.13,0000.04,-000.22,0000.16,16.1,23.0,,00.0,0629.2,30.8
2021-01-31T17:12:00Z,00000200,01000000,-000.14,0000.27,0000.08,-000.04,-000.02,-000.05,-000.22,-000.06,-000.46,16.0,23.0,,00.0,0629.2,30.8
2021-01-31T17:13:00Z,00000200,01000000,0000.26,0000.13,0000.19,0000.16,0000.12,0000.08,-000.09,-000.52,0000.15,16.0,23.0,,00.0,0629.2,30.8
2021-01-31T17:14:00Z,00000200,01000000,0001.16,0000.10,0000.02,0000.17,-000.04,0000.25,-000.09,0000.16,-000.06,15.9,23.0,,00.0,0629.2,30.8
2021-01-31T17:15:00Z,00000200,01000000,0000.85,0000.17,0000.11,-000.13,0000.18,-000.16,0000.41,-000.11,0000.13,15.9,22.9,,00.0,0629.2,30.8
2021-01-31T17:16:00Z,00000200,01000000,0000.62,-000.19,0000.21,0000.23,0000.22,0000.29,-000.02,0000.01,-000.14,15.9,22.9,,00.0,0629.1,30.8
2021-01-31T17:17:00Z,00000200,01000000,0000.60,0000.12,0000.10,0000.27,-000.15,0000.08,0000.05,0000.08,0000.47,15.9,22.9,,00.0,0629.1,30.8
2021-01-31T17:18:00Z,00000200,01000000,0000.98,0000.20,-000.18,-000.13,0000.06,-000.04,-000.17,0000.24,-000.05,15.9,22.9,,00.0,0629.1,30.8
2021-01-31T17:19:00Z,00000200,01000000,0000.51,-000.04,0000.15,0000.24,-000.02,-000.01,-000.08,-000.08,-000.10,16.0,22.9,,00.0,0629.1,30.9
2021-01-31T17:20:00Z,00000200,01000000,0001.34,0000.11,-000.06,-000.19,-000.21,0000.31,0000.16,0000.62,0000.13,16.1,22.9,,00.0,0629.1,30.9
2021-01-31T17:21:00Z,00000200,01000000,0000.46,0000.11,0000.01,0000.32,0000.15,0000.34,-000.01,-000.05,0000.09,16.2,22.9,,00.0,0629.1,30.9
2021-01-31T17:22:00Z,00000200,01000000,0000.38,0000.11,-000.17,0000.08,-000.04,0000.10,0000.11,0000.19,0000.29,16.2,23.0,,00.0,0629.1,30.9
2021-01-31T17:23:00Z,00000200,01000000,0000.28,0000.03,0000.09,-000.42,0000.13,0000.18,0000.08,-000.40,-000.32,16.3,23.0,,00.0,0629.2,30.9
2021-01-31T17:24:00Z,00000200,01000000,0001.09,-000.09,-000.10,-000.06,-000.15,0000.06,0000.28,0000.07,0000.03,16.3,23.0,,00.0,0629.2,30.9
2021-01-31T17:25:00Z,00000200,01000000,0000.46,0000.01,0000.03,-000.09,0000.15,0000.41,-000.20,0000.11,0000.11,16.3,23.0,,00.0,0629.2,30.9
2021-01-31T17:26:00Z,00000200,01000000,0000.33,0000.20,0000.19,0000.04,0000.15,0000.22,-000.17,-000.05,-000.12,16.3,23.0,,00.0,0629.2,30.9
2021-01-31T17:27:00Z,00000200,01000000,0000.06,0000.09,-000.16,-000.22,0000.26,0000.21,-000.02,0000.02,-000.14,16.2,23.0,,00.0,0629.3,30.9
2021-01-31T17:28:00Z,00000200,01000000,0000.30,0000.20,-000.09,-000.41,0000.23,0000.27,-000.02,-000.29,0000.15,16.1,22.9,,00.0,0629.3,30.9
2021-01-31T17:29:00Z,00000200,01000000,0000.11,0000.25,-000.02,0000.29,0000.07,0000.18,-000.08,-000.21,-000.60,16.1,22.9,,00.0,0629.3,30.9
2021-01-31T17:30:00Z,00000200,01000000,0000.78,0000.05,-000.10,0000.72,0000.27,-000.42,-000.34,-000.26,0000.07,16.0,22.9,,00.0,0629.3,30.8
2021-01-31T17:31:00Z,00000200,01000000,0000.48,0000.34,0000.27,0000.08,0000.13,0000.24,-000.23,-000.15,-000.08,16.0,22.8,,00.0,0629.3,30.8
2021-01-31T17:32:00Z,00000200,01000000,0000.49,-000.14,0000.21,-000.14,0000.12,0000.07,0000.00,-000.16,0000.18,16.0,22.8,,00.0,0629.3,30.8
2021-01-31T17:33:00Z,00000200,01000000,0000.61,0000.11,0000.20,0000.16,0000.06,0000.12,-000.20,0000.27,0000.08,16.1,22.8,,00.0,0629.3,30.9
2021-01-31T17:34:00Z,00000200,01000000,0000.74,0000.16,0000.02,0000.59,0000.05,0000.08,0000.11,-000.47,-000.29,16.1,22.8,,00.0,0629.3,30.9
2021-01-31T17:35:00Z,00000200,01000000,0000.95,0000.07,0000.18,0000.12,0000.10,0000.32,-000.02,0000.24,0000.18,16.2,22.9,,00.0,0629.3,30.9
2021-01-31T17:36:00Z,00000200,01000000,0000.65,0000.32,0000.08,0000.20,0000.17,0000.07,-000.01,0000.22,0000.13,16.3,22.9,,00.0,0629.4,30.9
2021-01-31T17:37:00Z,00000200,01000000,0000.85,-000.02,0000.15,0000.24,-000.01,0000.26,0000.42,0000.00,0000.15,16.3,22.9,,00.0,0629.4,30.9
2021-01-31T17:38:00Z,00000200,01000000,0000.22,-000.14,0000.25,-000.10,0000.16,0000.26,0000.11,0000.05,-000.07,16.4,23.0,,00.0,0629.4,30.9
2021-01-31T17:39:00Z,00000200,01000000,0000.29,0000.01,-000.33,0000.14,0000.08,0000.09,-000.25,-000.03,0000.25,16.5,23.0,,00.0,0629.4,30.9
2021-01-31T17:40:00Z,00000200,01000000,0000.97,0000.06,-000.08,0000.52,0000.14,0000.26,-000.38,-000.17,-000.54,16.5,23.0,,00.0,0629.4,30.9
2021-01-31T17:41:00Z,00000200,01000000,0000.11,0000.16,0000.22,-000.19,0000.09,0000.32,0000.08,0000.29,0000.19,16.5,23.0,,00.0,0629.4,30.9
2021-01-31T17:42:00Z,00000200,01000000,0000.67,0000.04,0000.16,-000.07,0000.17,0000.04,0000.03,-000.06,-000.23,16.5,23.0,,00.0,0629.4,30.9
2021-01-31T17:43:00Z,00000200,01000000,0000.70,-000.11,0000.11,0000.60,0000.26,0000.02,-000.03,-000.20,0000.17,16.4,23.0,,00.0,0629.4,30.9
2021-01-31T17:44:00Z,00000200,01000000,0000.38,0000.08,0000.18,0000.03,-000.04,0000.13,-000.32,-000.19,-000.22,16.4,22.9,,00.0,0629.4,30.9
2021-01-31T17:45:00Z,00000200,01000000,0001.07,0000.09,-000.03,-000.25,-000.02,0000.26,0000.41,0000.15,0000.00,16.3,22.9,,00.0,0629.4,30.9
2021-01-31T17:46:00Z,00000200,01000000,0000.79,0000.13,-000.02,0000.18,0000.02,0000.43,-000.06,-000.22,0000.12,16.3,22.9,,00.0,0629.4,30.9
2021-01-31T17:47:00Z,00000200,01000000,0000.32,0000.17,0000.25,-000.01,0000.02,0000.29,0000.03,0000.47,0000.24,16.3,22.9,,00.0,0629.4,30.9
2021-01-31T17:48:00Z,00000200,01000000,0000.98,0000.02,-000.01,0000.03,0000.31,0000.05,0000.13,-000.23,-000.10,16.3,22.9,,00.0,0629.4,30.9
2021-01-31T17:49:00Z,00000200,01000000,0000.77,0000.08,0000.08,0000.35,0000.16,0000.02,-000.23,0000.31,0000.09,16.3,22.9,,00.0,0629.4,30.9
2021-01-31T17:50:00Z,00000200,01000000,0000.97,0000.24,-000.35,-000.06,0000.19,0000.15,0000.15,-000.03,-000.01,16.4,22.9,,00.0,0629.5,30.9
2021-01-31T17:51:00Z,00000200,01000000,0001.04,-000.02,0000.01,0000.18,-000.04,0000.43,-000.01,-000.15,-000.09,16.5,23.0,,00.0,0629.5,30.9
2021-01-31T17:52:00Z,00000200,01000000,0000.97,0000.33,0000.09,0000.26,0000.04,0000.10,0000.01,0000.15,0000.19,16.5,23.0,,00.0,0629.5,30.9
2021-01-31T17:53:00Z,00000200,01000000,0000.99,0000.07,0000.04,0000.44,0000.37,0000.05,-000.16,-000.45,0000.00,16.5,23.0,,00.0,0629.5,30.9
2021-01-31T17:54:00Z,00000200,01000000,0000.65,0000.05,0000.06,0000.06,0000.13,0000.22,0000.05,0000.40,0000.11,16.6,23.0,,00.0,0629.4,30.9
2021-01-31T17:55:00Z,00000200,01000000,0000.86,0000.17,-000.01,-000.16,0000.08,0000.02,0000.16,-000.23,-000.28,16.5,23.0,,00.0,0629.5,30.9
2021-01-31T17:56:00Z,00000200,01000000,0001.28,0000.09,-000.03,0000.20,0000.34,0000.19,-000.39,-000.12,-000.09,16.5,23.0,,00.0,0629.5,30.9
2021-01-31T17:57:00Z,00000200,41000000,,,,,,,0001.77,0001.62,0000.96,16.5,23.0,,00.0,0629.5,30.9
2021-01-31T17:58:00Z,00000200,61000000,,,,,,,-000.75,-000.71,-000.39,15.9,23.1,,00.0,0628.5,30.9
2021-01-31T17:59:00Z,00000200,21000000,,,,,,,-000.40,-000.45,-000.06,15.9,23.2,,00.0,0628.5,30.9
